Time[GMT],significant_wave_height[m](0m),dominant_wave_period[s](0m)
2018-07-20 15:00, 0.47,10.7
2018-07-20 15:30, 0.42,10.7
2018-07-20 16:00, 0.36,8.0
2018-07-20 16:30, 0.43,8.0
2018-07-20 17:00, 0.43,8.0
2018-07-20 17:30, 0.34,8.0
2018-07-20 18:00, 0.31,8.0
2018-07-20 18:30, 0.41,8.0
2018-07-20 19:00, 0.36,8.0
2018-07-20 19:30, 0.42,8.0
2018-07-20 20:00, 0.42,8.0
2018-07-20 20:30, 0.41,8.0
2018-07-20 21:00, 0.39,8.0
2018-07-20 21:30, 0.42,8.0
2018-07-20 22:00, 0.41,8.0
2018-07-20 22:30, 0.44,8.0
2018-07-20 23:00, 0.42,8.0
2018-07-20 23:30, 0.50,8.0
2018-07-21 00:00, 0.46,8.0
2018-07-21 00:30, 0.48,8.0
2018-07-21 01:00, 0.39,8.0
2018-07-21 01:30, 0.47,8.0
2018-07-21 02:00, 0.40,8.0
2018-07-21 02:30, 0.38,8.0
2018-07-21 03:00, 0.31,8.0
2018-07-21 03:30, 0.30,8.0
2018-07-21 04:00, 0.26,8.0
2018-07-21 04:30, 0.26,8.0
2018-07-21 05:00, 0.30,8.0
2018-07-21 05:30, 0.29,8.0
2018-07-21 06:00, 0.25,8.0
2018-07-21 06:30, 0.27,8.0
2018-07-21 07:00, 0.27,8.0
2018-07-21 07:30, 0.27,8.0
2018-07-21 08:00, 0.29,8.0
2018-07-21 08:30, 0.33,8.0
2018-07-21 09:00, 0.33,8.0
2018-07-21 09:30, 0.34,8.0
2018-07-21 10:00, 0.37,8.0
2018-07-21 10:30, 0.32,8.0
2018-07-21 11:00, 0.30,8.0
2018-07-21 11:30, 0.34,8.0
2018-07-21 12:00, 0.38,8.0
2018-07-21 12:30, 0.36,8.0
2018-07-21 13:00, 0.37,8.0
2018-07-21 13:30, 0.31,8.0
2018-07-21 14:00, 0.27,8.0
2018-07-21 14:30, 0.28,8.0
2018-07-21 15:00, 0.27,8.0
2018-07-21 15:30, 0.24,8.0
2018-07-21 16:00, 0.24,8.0
2018-07-21 16:30, 0.28,8.0
2018-07-21 17:00, 0.24,8.0
2018-07-21 17:30, 0.25,8.0
2018-07-21 18:00, 0.19,8.0
2018-07-21 18:30, 0.29,8.0
2018-07-21 19:00, 0.21,8.0
2018-07-21 19:30, 0.21,8.0
2018-07-21 20:00, 0.25,8.0
2018-07-21 20:30, 0.27,8.0
2018-07-21 21:00, 0.31,8.0
2018-07-21 21:30, 0.35,8.0
2018-07-21 22:00, 0.43,8.0
2018-07-21 22:30, 0.38,8.0
2018-07-21 23:00, 0.40,8.0
2018-07-21 23:30, 0.39,8.0
2018-07-22 00:00, 0.42,8.0
2018-07-22 00:30, 0.44,8.0
2018-07-22 01:00, 0.41,8.0
2018-07-22 01:30, 0.42,8.0
2018-07-22 02:00, 0.38,8.0
2018-07-22 02:30, 0.40,8.0
2018-07-22 03:00, 0.36,8.0
2018-07-22 03:30, 0.36,8.0
2018-07-22 04:00, 0.33,8.0
2018-07-22 04:30, 0.29,8.0
2018-07-22 05:00, 0.25,10.7
2018-07-22 05:30, 0.29,10.7
2018-07-22 06:00, 0.34,8.0
2018-07-22 06:30, 0.30,8.0
2018-07-22 07:00, 0.30,8.0
2018-07-22 07:30, 0.29,8.0
2018-07-22 08:00, 0.31,8.0
2018-07-22 08:30, 0.34,8.0
2018-07-22 09:00, 0.36,8.0
2018-07-22 09:30, 0.29,8.0
2018-07-22 10:00, 0.34,8.0
2018-07-22 10:30, 0.36,8.0
2018-07-22 11:00, 0.36,8.0
2018-07-22 11:30, 0.38,8.0
2018-07-22 12:00, 0.37,8.0
2018-07-22 12:30, 0.44,8.0
2018-07-22 13:00, 0.43,8.0
2018-07-22 13:30, 0.36,8.0
2018-07-22 14:00, 0.38,8.0
2018-07-22 14:30, 0.38,8.0
2018-07-22 15:00, 0.42,8.0
2018-07-22 15:30, 0.36,8.0
2018-07-22 16:00, 0.36,8.0
2018-07-22 16:30, 0.38,8.0
2018-07-22 17:00, 0.30,8.0
2018-07-22 17:30, 0.38,8.0
2018-07-22 18:00, 0.34,8.0
2018-07-22 18:30, 0.34,8.0
2018-07-22 19:00, 0.36,8.0
2018-07-22 19:30, 0.33,8.0
2018-07-22 20:00, 0.34,8.0
2018-07-22 20:30, 0.26,8.0
2018-07-22 21:00, 0.30,8.0
2018-07-22 21:30, 0.31,8.0
2018-07-22 22:00, 0.34,6.4
2018-07-22 22:30, 0.37,8.0
2018-07-22 23:00, 0.42,8.0
2018-07-22 23:30, 0.37,8.0
2018-07-23 00:00, 0.41,8.0
2018-07-23 00:30, 0.41,8.0
2018-07-23 01:00, 0.53,8.0
2018-07-23 01:30, 0.53,8.0
2018-07-23 02:00, 0.56,8.0
2018-07-23 02:30, 0.65,8.0
2018-07-23 03:00, 0.59,8.0
2018-07-23 03:30, 0.57,8.0
2018-07-23 04:00, 0.62,8.0
2018-07-23 04:30, 0.59,8.0
2018-07-23 05:00, 0.62,8.0
2018-07-23 05:30, 0.54,8.0
2018-07-23 06:00, 0.58,8.0
2018-07-23 06:30, 0.53,8.0
2018-07-23 07:00, 0.58,8.0
2018-07-23 07:30, 0.72,8.0
2018-07-23 08:00, 0.64,8.0
2018-07-23 08:30, 0.62,8.0
2018-07-23 09:00, 0.57,8.0
2018-07-23 09:30, 0.65,8.0
2018-07-23 10:00, 0.67,8.0
2018-07-23 10:30, 0.68,8.0
2018-07-23 11:00, 0.75,8.0
2018-07-23 11:30, 0.91,8.0
2018-07-23 12:00, 0.86,8.0
2018-07-23 12:30, 0.93,8.0
2018-07-23 13:00, 0.87,8.0
2018-07-23 13:30, 0.86,8.0
2018-07-23 14:00, 0.90,8.0
2018-07-23 14:30, 1.00,8.0
2018-07-23 15:00, 0.93,8.0
2018-07-23 15:30, 0.89,8.0
2018-07-23 16:00, 0.85,8.0
2018-07-23 16:30, 0.85,8.0
2018-07-23 17:00, 0.75,8.0
2018-07-23 17:30, 0.77,8.0
2018-07-23 18:00, 0.69,8.0
2018-07-23 18:30, 0.70,8.0
2018-07-23 19:00, 0.73,8.0
2018-07-23 19:30, 0.71,8.0
2018-07-23 20:00, 0.67,8.0
2018-07-23 20:30, 0.65,8.0
2018-07-23 21:00, 0.57,8.0
2018-07-23 21:30, 0.62,8.0
2018-07-23 22:00, 0.72,8.0
2018-07-23 22:30, 0.69,8.0
2018-07-23 23:00, 0.74,8.0
2018-07-23 23:30, 0.82,8.0
2018-07-24 00:00, 0.75,8.0
2018-07-24 00:30, 0.73,8.0
2018-07-24 01:00, 0.76,8.0
2018-07-24 01:30, 0.70,8.0
2018-07-24 02:00, 0.80,8.0
2018-07-24 02:30, 0.84,8.0
2018-07-24 03:00, 0.80,8.0
2018-07-24 03:30, 0.77,8.0
2018-07-24 04:00, 0.70,8.0
2018-07-24 04:30, 0.66,8.0
2018-07-24 05:00, 0.62,8.0
2018-07-24 05:30, 0.62,8.0
2018-07-24 06:00, 0.65,8.0
2018-07-24 06:30, 0.66,10.7
2018-07-24 07:00, 0.62,10.7
2018-07-24 07:30, 0.60,10.7
2018-07-24 08:00, 0.57,8.0
2018-07-24 08:30, 0.59,8.0
2018-07-24 09:00, 0.50,8.0
2018-07-24 09:30, 0.49,8.0
2018-07-24 10:00, 0.50,8.0
2018-07-24 10:30, 0.56,8.0
2018-07-24 11:00, 0.62,8.0
2018-07-24 11:30, 0.66,8.0
2018-07-24 12:00, 0.67,8.0
2018-07-24 12:30, 0.62,8.0
2018-07-24 13:00, 0.65,8.0
2018-07-24 13:30, 0.65,8.0
2018-07-24 14:00, 0.69,8.0
2018-07-24 14:30, 0.74,8.0
2018-07-24 15:00, 0.69,8.0
2018-07-24 15:30, 0.69,8.0
2018-07-24 16:00, 0.65,8.0
2018-07-24 16:30, 0.63,8.0
2018-07-24 17:00, 0.70,8.0
2018-07-24 17:30, 0.59,8.0
2018-07-24 18:00, 0.59,8.0
2018-07-24 18:30, 0.55,8.0
2018-07-24 19:00, 0.53,8.0
2018-07-24 19:30, 0.56,8.0
2018-07-24 20:00, 0.58,8.0
2018-07-24 20:30, 0.58,8.0
2018-07-24 21:00, 0.44,8.0
2018-07-24 21:30, 0.49,8.0
2018-07-24 22:00, 0.48,8.0
2018-07-24 22:30, 0.45,8.0
2018-07-24 23:00, 0.51,8.0
2018-07-24 23:30, 0.51,8.0
2018-07-25 00:00, 0.60,8.0
2018-07-25 00:30, 0.56,8.0
2018-07-25 01:00, 0.61,8.0
2018-07-25 01:30, 0.65,8.0
2018-07-25 02:00, 0.67,8.0
2018-07-25 02:30, 0.63,8.0
2018-07-25 03:00, 0.69,8.0
2018-07-25 03:30, 0.67,8.0
2018-07-25 04:00, 0.76,8.0
2018-07-25 04:30, 0.67,8.0
2018-07-25 05:00, 0.58,8.0
2018-07-25 05:30, 0.56,8.0
2018-07-25 06:00, 0.57,8.0
2018-07-25 06:30, 0.57,8.0
2018-07-25 07:00, 0.51,8.0
2018-07-25 07:30, 0.51,8.0
2018-07-25 08:00, 0.47,8.0
2018-07-25 08:30, 0.53,8.0
2018-07-25 09:00, 0.57,8.0
2018-07-25 09:30, 0.42,8.0
2018-07-25 10:00, 0.49,8.0
2018-07-25 10:30, 0.46,8.0
2018-07-25 11:00, 0.41,8.0
2018-07-25 11:30, 0.47,8.0
2018-07-25 12:00, 0.64,8.0
2018-07-25 12:30, 0.61,8.0
2018-07-25 13:00, 0.55,8.0
2018-07-25 13:30, 0.72,8.0
2018-07-25 14:00, 0.57,8.0
2018-07-25 14:30, 0.58,8.0
2018-07-25 15:00, 0.57,8.0
2018-07-25 15:30, 0.59,8.0
2018-07-25 16:00, 0.73,8.0
2018-07-25 16:30, 0.57,8.0
2018-07-25 17:00, 0.58,8.0
2018-07-25 17:30, 0.57,8.0
2018-07-25 18:00, 0.60,8.0
2018-07-25 18:30, 0.56,8.0
2018-07-25 19:00, 0.47,8.0
2018-07-25 19:30, 0.52,8.0
2018-07-25 20:00, 0.52,8.0
2018-07-25 20:30, 0.49,8.0
2018-07-25 21:00, 0.51,8.0
2018-07-25 21:30, 0.52,8.0
2018-07-25 22:00, 0.41,8.0
2018-07-25 22:30, 0.50,8.0
2018-07-25 23:00, 0.45,8.0
2018-07-25 23:30, 0.43,8.0
2018-07-26 00:00, 0.42,8.0
2018-07-26 00:30, 0.49,8.0
2018-07-26 01:00, 0.48,8.0
2018-07-26 01:30, 0.46,8.0
2018-07-26 02:00, 0.53,8.0
2018-07-26 02:30, 0.60,8.0
2018-07-26 03:00, 0.61,8.0
2018-07-26 03:30, 0.64,8.0
2018-07-26 04:00, 0.69,8.0
2018-07-26 04:30, 0.75,8.0
2018-07-26 05:00, 0.71,6.4
2018-07-26 05:30, 0.67,6.4
2018-07-26 06:00, 0.78,8.0
2018-07-26 06:30, 0.65,5.3
2018-07-26 07:00, 0.72,6.4
2018-07-26 07:30, 0.70,5.3
2018-07-26 08:00, 0.76,5.3
2018-07-26 08:30, 0.74,5.3
2018-07-26 09:00, 0.70,5.3
2018-07-26 09:30, 0.72,6.4
2018-07-26 10:00, 0.79,5.3
2018-07-26 10:30, 0.54,5.3
2018-07-26 11:00, 0.65,5.3
2018-07-26 11:30, 0.68,5.3
2018-07-26 12:00, 0.63,5.3
2018-07-26 12:30, 0.63,5.3
2018-07-26 13:00, 0.69,6.4
2018-07-26 13:30, 0.73,6.4
2018-07-26 14:00, 0.82,6.4
2018-07-26 14:30, 0.89,6.4
2018-07-26 15:00, 0.94,6.4
2018-07-26 15:30, 1.00,6.4
2018-07-26 16:00, 0.95,6.4
2018-07-26 16:30, 1.07,6.4
2018-07-26 17:00, 1.06,6.4
2018-07-26 17:30, 1.14,8.0
2018-07-26 18:00, 1.03,6.4
2018-07-26 18:30, 0.93,6.4
2018-07-26 19:00, 1.01,6.4
2018-07-26 19:30, 1.04,6.4
2018-07-26 20:00, 1.02,6.4
2018-07-26 20:30, 1.14,6.4
2018-07-26 21:00, 1.15,8.0
2018-07-26 21:30, 1.09,6.4
2018-07-26 22:00, 1.05,6.4
2018-07-26 22:30, 0.87,6.4
2018-07-26 23:00, 1.05,8.0
2018-07-26 23:30, 0.91,8.0
2018-07-27 00:00, 0.92,8.0
2018-07-27 00:30, 1.03,8.0
2018-07-27 01:00, 1.01,8.0
2018-07-27 01:30, 1.08,8.0
2018-07-27 02:00, 1.04,8.0
2018-07-27 02:30, 1.15,8.0
2018-07-27 03:00, 1.17,8.0
2018-07-27 03:30, 1.12,8.0
2018-07-27 04:00, 1.11,8.0
2018-07-27 04:30, 1.24,8.0
2018-07-27 05:00, 1.20,8.0
2018-07-27 05:30, 1.11,8.0
2018-07-27 06:00, 1.05,8.0
2018-07-27 06:30, 1.21,8.0
2018-07-27 07:00, 1.04,8.0
2018-07-27 07:30, 1.07,8.0
2018-07-27 08:00, 0.91,8.0
2018-07-27 08:30, 0.94,8.0
2018-07-27 09:00, 0.86,8.0
2018-07-27 09:30, 0.86,8.0
2018-07-27 10:00, 0.94,8.0
2018-07-27 10:30, 0.76,8.0
2018-07-27 11:00, 0.81,8.0
2018-07-27 11:30, 0.84,8.0
2018-07-27 12:00, 0.77,8.0
2018-07-27 12:30, 0.95,8.0
2018-07-27 13:00, 1.26,8.0
2018-07-27 13:30, 1.17,8.0
2018-07-27 14:00, 1.13,8.0
2018-07-27 14:30, 1.22,8.0
2018-07-27 15:00, 1.38,8.0
2018-07-27 15:30, 1.14,8.0
2018-07-27 16:00, 1.18,8.0
2018-07-27 16:30, 1.21,8.0
2018-07-27 17:00, 1.12,8.0
2018-07-27 17:30, 1.12,8.0
2018-07-27 18:00, 1.01,8.0
2018-07-27 18:30, 0.91,8.0
2018-07-27 19:00, 1.01,8.0
2018-07-27 19:30, 1.04,8.0
2018-07-27 20:00, 0.91,8.0
2018-07-27 20:30, 0.90,8.0
2018-07-27 21:00, 0.87,8.0
2018-07-27 21:30, 0.85,8.0
2018-07-27 22:00, 0.79,8.0
2018-07-27 22:30, 0.73,8.0
2018-07-27 23:00, 0.81,8.0
2018-07-27 23:30, 0.67,10.7
2018-07-28 00:00, 0.69,8.0
2018-07-28 00:30, 0.68,8.0
2018-07-28 01:00, 0.72,8.0
2018-07-28 01:30, 0.92,8.0
2018-07-28 02:00, 0.92,8.0
2018-07-28 02:30, 0.96,8.0
2018-07-28 03:00, 0.93,8.0
2018-07-28 03:30, 0.97,8.0
2018-07-28 04:00, 0.89,8.0
2018-07-28 04:30, 0.83,8.0
2018-07-28 05:00, 0.87,8.0
2018-07-28 05:30, 1.02,8.0
2018-07-28 06:00, 1.00,8.0
2018-07-28 06:30, 0.90,8.0
2018-07-28 07:00, 0.79,8.0
2018-07-28 07:30, 0.83,8.0
2018-07-28 08:00, 0.82,8.0
2018-07-28 08:30, 0.73,8.0
2018-07-28 09:00, 0.66,8.0
2018-07-28 09:30, 0.64,8.0
2018-07-28 10:00, 0.64,8.0
2018-07-28 10:30, 0.67,8.0
2018-07-28 11:00, 0.64,8.0
2018-07-28 11:30, 0.60,8.0
2018-07-28 12:00, 0.67,8.0
2018-07-28 12:30, 0.58,8.0
2018-07-28 13:00, 0.54,8.0
2018-07-28 13:30, 0.60,8.0
2018-07-28 14:00, 0.64,8.0
2018-07-28 14:30, 0.70,8.0
2018-07-28 15:00, 0.70,8.0
2018-07-28 15:30, 0.78,8.0
2018-07-28 16:00, 0.73,8.0
2018-07-28 16:30, 0.77,8.0
2018-07-28 17:00, 0.75,8.0
2018-07-28 17:30, 0.80,8.0
2018-07-28 18:00, 0.81,8.0
2018-07-28 18:30, 0.79,8.0
2018-07-28 19:00, 0.68,8.0
2018-07-28 19:30, 0.63,8.0
2018-07-28 20:00, 0.71,8.0
2018-07-28 20:30, 0.61,8.0
2018-07-28 21:00, 0.55,8.0
2018-07-28 21:30, 0.57,8.0
2018-07-28 22:00, 0.51,8.0
2018-07-28 22:30, 0.49,8.0
2018-07-28 23:00, 0.58,8.0
2018-07-28 23:30, 0.46,8.0
2018-07-29 00:00, 0.45,8.0
2018-07-29 00:30, 0.47,8.0
2018-07-29 01:00, 0.43,8.0
2018-07-29 01:30, 0.47,8.0
2018-07-29 02:00, 0.48,8.0
2018-07-29 02:30, 0.46,8.0
2018-07-29 03:00, 0.47,8.0
2018-07-29 03:30, 0.58,8.0
2018-07-29 04:00, 0.52,8.0
2018-07-29 04:30, 0.49,8.0
2018-07-29 05:00, 0.59,8.0
2018-07-29 05:30, 0.61,8.0
2018-07-29 06:00, 0.73,8.0
2018-07-29 06:30, 0.60,6.4
2018-07-29 07:00, 0.60,6.4
2018-07-29 07:30, 0.57,6.4
2018-07-29 08:00, 0.57,6.4
2018-07-29 08:30, 0.52,6.4
2018-07-29 09:00, 0.47,6.4
2018-07-29 09:30, 0.42,6.4
2018-07-29 10:00, 0.42,6.4
2018-07-29 10:30, 0.37,6.4
2018-07-29 11:00, 0.41,8.0
2018-07-29 11:30, 0.43,6.4
2018-07-29 12:00, 0.37,8.0
2018-07-29 12:30, 0.38,8.0
2018-07-29 13:00, 0.36,6.4
2018-07-29 13:30, 0.39,8.0
2018-07-29 14:00, 0.54,8.0
2018-07-29 14:30, 0.47,8.0
2018-07-29 15:00, 0.48,8.0
2018-07-29 15:30, 0.48,8.0
2018-07-29 16:00, 0.50,6.4
2018-07-29 16:30, 0.52,8.0
2018-07-29 17:00, 0.59,8.0
2018-07-29 17:30, 0.49,8.0
2018-07-29 18:00, 0.57,8.0
2018-07-29 18:30, 0.64,6.4
2018-07-29 19:00, 0.64,6.4
2018-07-29 19:30, 0.67,6.4
2018-07-29 20:00, 0.62,6.4
2018-07-29 20:30, 0.55,6.4
2018-07-29 21:00, 0.54,8.0
2018-07-29 21:30, 0.50,6.4
2018-07-29 22:00, 0.45,6.4
2018-07-29 22:30, 0.43,6.4
2018-07-29 23:00, 0.43,8.0
2018-07-29 23:30, 0.46,6.4
2018-07-30 00:00, 0.35,8.0
2018-07-30 00:30, 0.41,8.0
2018-07-30 01:00, 0.37,8.0
2018-07-30 01:30, 0.39,6.4
2018-07-30 02:00, 0.39,8.0
2018-07-30 02:30, 0.38,6.4
2018-07-30 03:00, 0.41,6.4
2018-07-30 03:30, 0.46,8.0
2018-07-30 04:00, 0.50,8.0
2018-07-30 04:30, 0.43,6.4
2018-07-30 05:00, 0.49,8.0
2018-07-30 05:30, 0.43,8.0
2018-07-30 06:00, 0.47,6.4
2018-07-30 06:30, 0.49,6.4
2018-07-30 07:00, 0.56,8.0
2018-07-30 07:30, 0.57,6.4
2018-07-30 08:00, 0.55,6.4
2018-07-30 08:30, 0.59,6.4
2018-07-30 09:00, 0.50,6.4
2018-07-30 09:30, 0.56,8.0
2018-07-30 10:00, 0.53,8.0
2018-07-30 10:30, 0.47,6.4
2018-07-30 11:00, 0.41,6.4
2018-07-30 11:30, 0.44,8.0
2018-07-30 12:00, 0.49,8.0
2018-07-30 12:30, 0.41,8.0
2018-07-30 13:00, 0.43,8.0
2018-07-30 13:30, 0.37,8.0
2018-07-30 14:00, 0.40,8.0
2018-07-30 14:30, 0.38,6.4
2018-07-30 15:00, 0.45,8.0
2018-07-30 15:30, 0.51,6.4
2018-07-30 16:00, 0.49,6.4
2018-07-30 16:30, 0.54,6.4
2018-07-30 17:00, 0.53,8.0
2018-07-30 17:30, 0.54,6.4
2018-07-30 18:00, 0.60,6.4
2018-07-30 18:30, 0.67,8.0
2018-07-30 19:00, 0.61,8.0
2018-07-30 19:30, 0.69,8.0
2018-07-30 20:00, 0.65,8.0
2018-07-30 20:30, 0.67,8.0
2018-07-30 21:00, 0.64,8.0
2018-07-30 21:30, 0.64,8.0
2018-07-30 22:00, 0.56,8.0
2018-07-30 22:30, 0.49,8.0
2018-07-30 23:00, 0.42,8.0
2018-07-30 23:30, 0.43,8.0
2018-07-31 00:00, 0.50,8.0
2018-07-31 00:30, 0.40,8.0
2018-07-31 01:00, 0.44,8.0
2018-07-31 01:30, 0.39,8.0
2018-07-31 02:00, 0.44,8.0
2018-07-31 02:30, 0.37,8.0
2018-07-31 03:00, 0.31,8.0
2018-07-31 03:30, 0.35,8.0
2018-07-31 04:00, 0.37,6.4
2018-07-31 04:30, 0.35,6.4
2018-07-31 05:00, 0.42,6.4
2018-07-31 05:30, 0.44,6.4
2018-07-31 06:00, 0.40,6.4
2018-07-31 06:30, 0.42,6.4
2018-07-31 07:00, 0.48,6.4
2018-07-31 07:30, 0.51,6.4
2018-07-31 08:00, 0.56,6.4
2018-07-31 08:30, 0.47,6.4
2018-07-31 09:00, 0.50,6.4
2018-07-31 09:30, 0.48,6.4
2018-07-31 10:00, 0.48,6.4
2018-07-31 10:30, 0.44,6.4
2018-07-31 11:00, 0.39,6.4
2018-07-31 11:30, 0.35,6.4
2018-07-31 12:00, 0.35,6.4
2018-07-31 12:30, 0.39,8.0
2018-07-31 13:00, 0.42,6.4
2018-07-31 13:30, 0.29,8.0
2018-07-31 14:00, 0.35,8.0
2018-07-31 14:30, 0.30,6.4
2018-07-31 15:00, 0.33,6.4
2018-07-31 15:30, 0.37,6.4
2018-07-31 16:00, 0.37,8.0
2018-07-31 16:30, 0.36,6.4
2018-07-31 17:00, 0.40,6.4
2018-07-31 17:30, 0.36,6.4
2018-07-31 18:00, 0.36,6.4
2018-07-31 18:30, 0.32,6.4
2018-07-31 19:00, 0.37,6.4
2018-07-31 19:30, 0.39,6.4
2018-07-31 20:00, 0.38,6.4
2018-07-31 20:30, 0.38,6.4
2018-07-31 21:00, 0.37,6.4
2018-07-31 21:30, 0.37,6.4
2018-07-31 22:00, 0.41,6.4
2018-07-31 22:30, 0.38,6.4
2018-07-31 23:00, 0.33,6.4
2018-07-31 23:30, 0.30,6.4
2018-08-01 00:00, 0.29,8.0
2018-08-01 00:30, 0.27,8.0
2018-08-01 01:00, 0.32,6.4
2018-08-01 01:30, 0.28,8.0
2018-08-01 02:00, 0.26,8.0
2018-08-01 02:30, 0.25,8.0
2018-08-01 03:00, 0.24,6.4
2018-08-01 03:30, 0.27,8.0
2018-08-01 04:00, 0.27,6.4
2018-08-01 04:30, 0.34,6.4
2018-08-01 05:00, 0.33,6.4
2018-08-01 05:30, 0.32,6.4
2018-08-01 06:00, 0.30,6.4
2018-08-01 06:30, 0.30,6.4
2018-08-01 07:00, 0.29,6.4
2018-08-01 07:30, 0.30,6.4
2018-08-01 08:00, 0.30,6.4
2018-08-01 08:30, 0.36,6.4
2018-08-01 09:00, 0.37,6.4
2018-08-01 09:30, 0.35,6.4
2018-08-01 10:00, 0.37,6.4
2018-08-01 10:30, 0.32,6.4
2018-08-01 11:00, 0.30,6.4
2018-08-01 11:30, 0.29,6.4
2018-08-01 12:00, 0.26,6.4
2018-08-01 12:30, 0.27,5.3
2018-08-01 13:00, 0.30,6.4
2018-08-01 13:30, 0.24,6.4
2018-08-01 14:00, 0.25,5.3
2018-08-01 14:30, 0.24,5.3
2018-08-01 15:00, 0.21,6.4
2018-08-01 15:30, 0.26,6.4
2018-08-01 16:00, 0.25,6.4
2018-08-01 16:30, 0.26,6.4
2018-08-01 17:00, 0.26,8.0
2018-08-01 17:30, 0.28,8.0
2018-08-01 18:00, 0.29,6.4
2018-08-01 18:30, 0.29,8.0
2018-08-01 19:00, 0.29,8.0
2018-08-01 19:30, 0.35,6.4
2018-08-01 20:00, 0.34,6.4
2018-08-01 20:30, 0.35,8.0
2018-08-01 21:00, 0.40,8.0
2018-08-01 21:30, 0.42,8.0
2018-08-01 22:00, 0.43,8.0
2018-08-01 22:30, 0.38,8.0
2018-08-01 23:00, 0.44,8.0
2018-08-01 23:30, 0.36,8.0
2018-08-02 00:00, 0.34,6.4
2018-08-02 00:30, 0.32,8.0
2018-08-02 01:00, 0.34,8.0
2018-08-02 01:30, 0.37,6.4
2018-08-02 02:00, 0.35,8.0
2018-08-02 02:30, 0.31,8.0
2018-08-02 03:00, 0.32,8.0
2018-08-02 03:30, 0.29,8.0
2018-08-02 04:00, 0.28,8.0
2018-08-02 04:30, 0.41,8.0
2018-08-02 05:00, 0.49,6.4
2018-08-02 05:30, 0.48,8.0
2018-08-02 06:00, 0.59,6.4
2018-08-02 06:30, 0.58,3.6
2018-08-02 07:00, 0.74,4.0
2018-08-02 07:30, 0.76,4.0
2018-08-02 08:00, 0.71,4.6
2018-08-02 08:30, 0.81,4.6
2018-08-02 09:00, 0.92,6.4
2018-08-02 09:30, 0.81,6.4
2018-08-02 10:00, 0.85,6.4
2018-08-02 10:30, 0.78,6.4
2018-08-02 11:00, 0.83,6.4
2018-08-02 11:30, 0.71,6.4
2018-08-02 12:00, 0.73,6.4
2018-08-02 12:30, 0.67,6.4
2018-08-02 13:00, 0.56,6.4
2018-08-02 13:30, 0.53,5.3
2018-08-02 14:00, 0.64,6.4
2018-08-02 14:30, 0.51,6.4
2018-08-02 15:00, 0.48,5.3
2018-08-02 15:30, 0.48,5.3
2018-08-02 16:00, 0.47,5.3
2018-08-02 16:30, 0.49,5.3
2018-08-02 17:00, 0.50,5.3
2018-08-02 17:30, 0.52,5.3
2018-08-02 18:00, 0.56,5.3
2018-08-02 18:30, 0.56,5.3
2018-08-02 19:00, 0.70,5.3
2018-08-02 19:30, 0.65,5.3
2018-08-02 20:00, 0.59,5.3
2018-08-02 20:30, 0.61,5.3
2018-08-02 21:00, 0.71,6.4
2018-08-02 21:30, 0.66,6.4
2018-08-02 22:00, 0.68,6.4
2018-08-02 22:30, 0.70,6.4
2018-08-02 23:00, 0.66,6.4
2018-08-02 23:30, 0.61,6.4
2018-08-03 00:00, 0.62,6.4
2018-08-03 00:30, 0.57,6.4
2018-08-03 01:00, 0.55,6.4
2018-08-03 01:30, 0.55,6.4
2018-08-03 02:00, 0.61,6.4
2018-08-03 02:30, 0.63,6.4
2018-08-03 03:00, 0.48,6.4
2018-08-03 03:30, 0.57,5.3
2018-08-03 04:00, 0.49,5.3
2018-08-03 04:30, 0.47,5.3
2018-08-03 05:00, 0.56,6.4
2018-08-03 05:30, 0.57,5.3
2018-08-03 06:00, 0.65,5.3
2018-08-03 06:30, 0.61,5.3
2018-08-03 07:00, 0.59,5.3
2018-08-03 07:30, 0.62,6.4
2018-08-03 08:00, 0.64,6.4
2018-08-03 08:30, 0.64,6.4
2018-08-03 09:00, 0.64,6.4
2018-08-03 09:30, 0.57,6.4
2018-08-03 10:00, 0.56,6.4
2018-08-03 10:30, 0.52,6.4
2018-08-03 11:00, 0.53,6.4
2018-08-03 11:30, 0.52,6.4
2018-08-03 12:00, 0.52,6.4
2018-08-03 12:30, 0.53,6.4
2018-08-03 13:00, 0.48,6.4
2018-08-03 13:30, 0.49,6.4
2018-08-03 14:00, 0.57,6.4
2018-08-03 14:30, 0.62,6.4
2018-08-03 15:00, 0.59,6.4
2018-08-03 15:30, 0.56,5.3
2018-08-03 16:00, 0.54,6.4
2018-08-03 16:30, 0.44,6.4
2018-08-03 17:00, 0.56,6.4
2018-08-03 17:30, 0.74,6.4
2018-08-03 18:00, 0.67,6.4
2018-08-03 18:30, 0.61,6.4
2018-08-03 19:00, 0.69,5.3
2018-08-03 19:30, 0.63,6.4
2018-08-03 20:00, 0.62,6.4
2018-08-03 20:30, 0.55,5.3
2018-08-03 21:00, 0.57,6.4
2018-08-03 21:30, 0.54,6.4
2018-08-03 22:00, 0.57,6.4
2018-08-03 22:30, 0.49,6.4
2018-08-03 23:00, 0.51,6.4
2018-08-03 23:30, 0.46,6.4
2018-08-04 00:00, 0.50,6.4
2018-08-04 00:30, 0.44,6.4
2018-08-04 01:00, 0.41,6.4
2018-08-04 01:30, 0.45,6.4
2018-08-04 02:00, 0.45,6.4
2018-08-04 02:30, 0.51,6.4
2018-08-04 03:00, 0.44,6.4
2018-08-04 03:30, 0.41,5.3
2018-08-04 04:00, 0.35,5.3
2018-08-04 04:30, 0.38,6.4
2018-08-04 05:00, 0.35,6.4
2018-08-04 05:30, 0.38,5.3
2018-08-04 06:00, 0.45,5.3
2018-08-04 06:30, 0.43,5.3
2018-08-04 07:00, 0.50,5.3
2018-08-04 07:30, 0.44,5.3
2018-08-04 08:00, 0.43,5.3
2018-08-04 08:30, 0.38,5.3
2018-08-04 09:00, 0.35,4.6
2018-08-04 09:30, 0.34,5.3
2018-08-04 10:00, 0.37,6.4
2018-08-04 10:30, 0.40,5.3
2018-08-04 11:00, 0.38,5.3
2018-08-04 11:30, 0.35,5.3
2018-08-04 12:00, 0.36,5.3
2018-08-04 12:30, 0.36,5.3
2018-08-04 13:00, 0.35,5.3
2018-08-04 13:30, 0.34,5.3
2018-08-04 14:00, 0.33,5.3
2018-08-04 14:30, 0.35,5.3
2018-08-04 15:00, 0.36,5.3
2018-08-04 15:30, 0.39,4.6
2018-08-04 16:00, 0.26,5.3
2018-08-04 16:30, 0.30,5.3
2018-08-04 17:00, 0.27,4.6
2018-08-04 17:30, 0.27,5.3
2018-08-04 18:00, 0.33,5.3
2018-08-04 18:30, 0.33,5.3
2018-08-04 19:00, 0.40,5.3
2018-08-04 19:30, 0.46,5.3
2018-08-04 20:00, 0.42,5.3
2018-08-04 20:30, 0.42,5.3
2018-08-04 21:00, 0.43,5.3
2018-08-04 21:30, 0.47,5.3
2018-08-04 22:00, 0.44,5.3
2018-08-04 22:30, 0.49,6.4
2018-08-04 23:00, 0.38,6.4
2018-08-04 23:30, 0.37,5.3
2018-08-05 00:00, 0.37,5.3
2018-08-05 00:30, 0.36,5.3
2018-08-05 01:00, 0.37,5.3
2018-08-05 01:30, 0.35,5.3
2018-08-05 02:00, 0.32,5.3
2018-08-05 02:30, 0.35,5.3
2018-08-05 03:00, 0.32,5.3
2018-08-05 03:30, 0.38,5.3
2018-08-05 04:00, 0.44,5.3
2018-08-05 04:30, 0.37,5.3
2018-08-05 05:00, 0.34,5.3
2018-08-05 05:30, 0.37,5.3
2018-08-05 06:00, 0.32,5.3
2018-08-05 06:30, 0.39,5.3
2018-08-05 07:00, 0.33,5.3
2018-08-05 07:30, 0.42,5.3
2018-08-05 08:00, 0.43,5.3
2018-08-05 08:30, 0.55,5.3
2018-08-05 09:00, 0.56,5.3
2018-08-05 09:30, 0.54,5.3
2018-08-05 10:00, 0.46,6.4
2018-08-05 10:30, 0.43,5.3
2018-08-05 11:00, 0.38,5.3
2018-08-05 11:30, 0.36,6.4
2018-08-05 12:00, 0.40,6.4
2018-08-05 12:30, 0.39,6.4
2018-08-05 13:00, 0.35,6.4
2018-08-05 13:30, 0.35,6.4
2018-08-05 14:00, 0.35,6.4
2018-08-05 14:30, 0.33,6.4
2018-08-05 15:00, 0.36,6.4
2018-08-05 15:30, 0.32,6.4
2018-08-05 16:00, 0.32,5.3
2018-08-05 16:30, 0.33,6.4
2018-08-05 17:00, 0.28,6.4
2018-08-05 17:30, 0.33,5.3
2018-08-05 18:00, 0.28,5.3
2018-08-05 18:30, 0.27,5.3
2018-08-05 19:00, 0.44,5.3
2018-08-05 19:30, 0.38,5.3
2018-08-05 20:00, 0.34,5.3
2018-08-05 20:30, 0.39,5.3
2018-08-05 21:00, 0.35,5.3
2018-08-05 21:30, 0.35,5.3
2018-08-05 22:00, 0.36,4.6
2018-08-05 22:30, 0.34,5.3
2018-08-05 23:00, 0.32,6.4
2018-08-05 23:30, 0.35,6.4
2018-08-06 00:00, 0.31,5.3
2018-08-06 00:30, 0.28,5.3
2018-08-06 01:00, 0.28,5.3
2018-08-06 01:30, 0.31,6.4
2018-08-06 02:00, 0.29,5.3
2018-08-06 02:30, 0.28,5.3
2018-08-06 03:00, 0.28,5.3
2018-08-06 03:30, 0.25,5.3
2018-08-06 04:00, 0.25,5.3
2018-08-06 04:30, 0.29,5.3
2018-08-06 05:00, 0.24,5.3
2018-08-06 05:30, 0.22,5.3
2018-08-06 06:00, 0.23,5.3
2018-08-06 06:30, 0.23,8.0
2018-08-06 07:00, 0.24,8.0
2018-08-06 07:30, 0.23,6.4
2018-08-06 08:00, 0.26,6.4
2018-08-06 08:30, 0.30,5.3
2018-08-06 09:00, 0.32,6.4
2018-08-06 09:30, 0.30,3.6
2018-08-06 10:00, 0.27,6.4
2018-08-06 10:30, 0.28,6.4
2018-08-06 11:00, 0.26,8.0
2018-08-06 11:30, 0.29,8.0
2018-08-06 12:00, 0.28,6.4
2018-08-06 12:30, 0.26,6.4
2018-08-06 13:00, 0.26,8.0
2018-08-06 13:30, 0.28,8.0
2018-08-06 14:00, 0.27,8.0
2018-08-06 14:30, 0.25,6.4
2018-08-06 15:00, 0.25,6.4
2018-08-06 15:30, 0.23,6.4
2018-08-06 16:00, 0.25,5.3
2018-08-06 16:30, 0.26,6.4
2018-08-06 17:00, 0.26,6.4
2018-08-06 17:30, 0.27,8.0
2018-08-06 18:00, 0.24,6.4
2018-08-06 18:30, 0.21,6.4
2018-08-06 19:00, 0.22,6.4
2018-08-06 19:30, 0.21,6.4
2018-08-06 20:00, 0.25,6.4
2018-08-06 20:30, 0.28,2.0
2018-08-06 21:00, 0.25,6.4
2018-08-06 21:30, 0.25,8.0
2018-08-06 22:00, 0.31,6.4
2018-08-06 22:30, 0.26,2.3
2018-08-06 23:00, 0.24,6.4
2018-08-06 23:30, 0.23,6.4
2018-08-07 00:00, 0.27,6.4
2018-08-07 00:30, 0.28,6.4
2018-08-07 01:00, 0.25,6.4
2018-08-07 01:30, 0.22,6.4
2018-08-07 02:00, 0.23,6.4
2018-08-07 02:30, 0.23,6.4
2018-08-07 03:00, 0.23,6.4
2018-08-07 03:30, 0.22,6.4
2018-08-07 04:00, 0.23,6.4
2018-08-07 04:30, 0.22,16.0
2018-08-07 05:00, 0.21,6.4
2018-08-07 05:30, 0.24,6.4
2018-08-07 06:00, 0.23,5.3
2018-08-07 06:30, 0.20,5.3
2018-08-07 07:00, 0.21,5.3
2018-08-07 07:30, 0.22,16.0
2018-08-07 08:00, 0.20,5.3
2018-08-07 08:30, 0.24,5.3
2018-08-07 09:00, 0.26,4.6
2018-08-07 09:30, 0.27,3.2